Airborne Airpark

Airport
ICAO code: 
KILN
Summary
ICAO Region: 
NAM
Territory: 
Location: 
Wilmington, Ohio,
Coordinates: 
Aerial View: 
39° 25' 40.434" N, 83° 47' 31.556" W
Metar
Observation
KILN 271754Z AUTO 19005KT 10SM -RA SCT048 OVC065 17/14 A2978 RMK AO2 LTG DSNT SW RAB24 SLP081 P0003 60004 T01670139 10200 20156 55000
Station
Wilmington, Airborne Airpark Airport
Date/Time
2022-05-27 17:54:00
Wind direction
190°
Wind speed
05 kts
Lowest cloud amount
scattered clouds
Temperature
16.7°C
Dew point
13.9°C
Humidity
83%
Weather condition
light rain

Description

Airborne Airpark is a public-use airport located 3.7 km southeast of the central business district of Wilmington, a city in Clinton County, Ohio, United States. Airborne Express had formerly had private ownership of the property while operating from it but the company subsequently decided to donate the property to the Clinton County Port Authority.

The airport was formerly known as Clinton County Air Force Base.

Climatology

Humid continental climate (Köppen climate classification Dfa) - characterized by four seasons: cold, windy, snowy winters, mild springs, hot, humid summers, and crisp and relatively short autumns. Precipitation reaches its lowest in January and February and peaks in summer and latter half of spring.

Runways

Designator Length Width Surface Rops
04R/22L 2743 46 CON Yes/Yes
04L/22R 3262 46 CON Yes/Yes
Airport map: 
Aerial View: 

SKYbrary Partners:

Safety knowledge contributed by: